Location: Gälforsberget
(66.6500°N, 22.4167°E)
Time: 19:52:11
(UTC+00:00)

Cosmos 1025 Rocket - Pass Details

Date: 11 April 2026
Orbit: 587 x 609 km, 82.5° (Epoch: 19 May)

Event Time Altitude Azimuth Distance (km) Brightness Sun altitude
Rises 19:01:44 0° 340° (NNW) 2,836 7.6 -5.9°
Reaches altitude 10° 19:03:58 10° 344° (NNW) 1,931 6.5 -6.1°
Maximum altitude 19:08:11 58° 64° (ENE) 697 3.2 -6.4°
Drops below altitude 10° 19:12:22 10° 144° (SE) 1,921 5.0 -6.7°
Enters shadow 19:12:49 - 146° (SE) 2,101 5.2 -6.8°
